Location: Izdebno
(52.6670°N, 16.2170°E)
Time: 22:04:14
(UTC+01:00)

ISS - Visible Passes

Search period start: 30 November 2022 00:00
Search period end: 10 December 2022 00:00
Orbit: 415 x 420 km, 51.6° (Epoch: 30 November)

Date Brightness Start Highest point End Pass type
(mag) Time Alt. Az. Time Alt. Az. Time Alt. Az.
30 Nov -3.7 17:03:21 10° W 17:06:43 74° S 17:09:13 17° E visible
30 Nov -1.7 18:40:09 10° W 18:42:09 27° WSW 18:42:09 27° WSW visible
01 Dec -3.0 17:52:07 10° W 17:55:22 47° SSW 17:56:13 37° SSE visible
02 Dec -3.3 17:04:06 10° W 17:07:25 58° SSW 17:10:22 12° ESE visible
02 Dec -1.3 18:41:11 10° W 18:43:19 20° SW 18:43:19 20° SW visible
03 Dec -1.9 17:52:59 10° W 17:55:55 28° SSW 17:57:38 18° SSE visible
04 Dec -2.3 17:04:53 10° W 17:08:01 37° SSW 17:11:09 10° SE visible
04 Dec -0.6 18:43:28 10° SW 18:44:05 10° SW 18:44:43 10° SSW visible
05 Dec -2.7 16:16:51 10° W 16:20:06 48° SSW 16:23:21 10° SE visible
05 Dec -0.8 17:54:17 10° WSW 17:56:19 15° SW 17:58:21 10° S visible
06 Dec -1.2 17:05:53 10° W 17:08:31 21° SSW 17:11:07 10° SSE visible
07 Dec -1.5 16:17:42 10° W 16:20:40 29° SSW 16:23:35 10° SSE visible
08 Dec -0.2 17:08:00 10° WSW 17:08:50 11° SW 17:09:41 10° SSW visible
09 Dec -0.5 16:18:59 10° WSW 16:21:05 16° SW 16:23:09 10° S visible
